Home > Weather > Patras > Past weeks

Flag for Greece Weather for the Past 2 Weeks in Patras, Greece

Now
61 °F

Partly sunny.


Feels Like: 61 °F
Forecast: 56 / 75 °F
Wind: 14 mph from South

Location: Araxos Airport

Current Time: Feb 14, 2016 at 8:27:35 AM

Latest Report: Feb 14, 2016 at 7:50 AM


Visibility: 5 mi

Pressure: 29.80 "Hg

Humidity: 94%

Dew point: 59 °F

Location of PatrasLocation

Historic Weather in Patras — Graph

°F

Patras Temperature Yesterday

Maximum temperature yesterday: 61 °F (at 9:50 AM)
Minimum temperature yesterday: 57 °F (at 12:50 AM)
Average temperature yesterday: 59 °F

High & Low Weather Summary for the Past Weeks

 TemperatureHumidityPressure
High68 °F (Feb 2, 1:50 PM)100% (Jan 30, 7:50 AM)30.42 "Hg (Jan 30, 7:50 AM)
Low32 °F (Feb 7, 6:50 AM)28% (Feb 6, 3:20 PM)29.74 "Hg (Feb 13, 2:50 PM)
Average54 °F81%30.13 "Hg
* Reported Jan 30 7:50 AM — Feb 14 6:50 AM, Patras, Weather by CustomWeather, © 2016

Note: Actual official high and low records may vary slightly from our data, if they occured in-between our weather recording intervals... More about our weather records

Advertising

Patras Weather History for the Previous 24 Hours

 ConditionsComfort  
Time TempWeatherWind HumidityBarometerVisibility
6:50 AM
Sun, Feb 14
61 °FPartly cloudy.10 mph94%29.77 "HgN/A
6:20 AM61 °FPartly cloudy.12 mph94%29.77 "HgN/A
5:50 AM59 °FPartly cloudy.12 mph100%29.77 "HgN/A
5:20 AM59 °FPartly cloudy.13 mph100%29.77 "HgN/A
4:50 AM59 °FPartly cloudy.10 mph94%29.77 "HgN/A
3:50 AM59 °FPartly cloudy.10 mph94%29.77 "HgN/A
2:50 AM59 °FPartly cloudy.8 mph100%29.77 "HgN/A
1:50 AM59 °FPartly cloudy.7 mph100%29.77 "HgN/A
12:50 AM59 °FPassing clouds.8 mph100%29.77 "HgN/A
11:50 PM
Sat, Feb 13
59 °FPassing clouds.10 mph100%29.80 "HgN/A
10:50 PM61 °FPassing clouds.10 mph94%29.80 "HgN/A
9:50 PM61 °FPartly cloudy.13 mph94%29.80 "HgN/A
8:50 PM61 °FPartly cloudy.12 mph88%29.80 "HgN/A
7:50 PM61 °FPassing clouds.21 mph88%29.77 "HgN/A
7:20 PM61 °FPartly cloudy.18 mph88%29.77 "HgN/A
6:50 PM61 °FPassing clouds.18 mph88%29.77 "HgN/A
6:20 PM61 °FPassing clouds.18 mph88%29.77 "HgN/A
5:50 PM61 °FBroken clouds.17 mph88%29.74 "HgN/A
5:20 PM61 °FBroken clouds.17 mph88%29.74 "HgN/A
4:50 PM61 °FMostly cloudy.16 mph88%29.74 "HgN/A
4:20 PM61 °FMostly cloudy.17 mph88%29.74 "HgN/A
3:50 PM61 °FMostly cloudy.17 mph88%29.74 "HgN/A
3:20 PM61 °FPartly sunny.20 mph88%29.74 "HgN/A
2:50 PM59 °FMostly cloudy.18 mph94%29.74 "HgN/A
1:50 PM61 °FMostly cloudy.21 mph88%29.77 "HgN/A
1:20 PM61 °FMostly cloudy.20 mph94%29.77 "HgN/A
12:50 PM59 °FDrizzle. Mostly cloudy.15 mph100%29.77 "Hg6 mi
12:20 PM59 °FLight rain. More clouds than sun.13 mph100%29.77 "Hg5 mi
11:50 AM59 °FDrizzle. More clouds than sun.13 mph100%29.80 "Hg5 mi
11:20 AM59 °FDrizzle. More clouds than sun.13 mph94%29.80 "Hg6 mi
10:50 AM59 °FDrizzle. More clouds than sun.15 mph94%29.80 "Hg6 mi
10:20 AM61 °FMore clouds than sun.10 mph88%29.80 "HgN/A
9:50 AM61 °FBroken clouds.17 mph88%29.80 "HgN/A
9:20 AM59 °FBroken clouds.10 mph94%29.80 "HgN/A
8:50 AM59 °FScattered clouds.14 mph88%29.80 "HgN/A
8:20 AM57 °FScattered clouds.10 mph94%29.80 "HgN/A
Weather by CustomWeather, © 2016

See weather overviewHow to use our weather pages